TimeCDT,TemperatureF,Dew PointF,Humidity,Sea Level PressureIn,VisibilityMPH,Wind Direction,Wind SpeedMPH,Gust SpeedMPH,PrecipitationIn,Events,Conditions,WindDirDegrees,DateUTC
12:53 AM,34.0,27.0,75,30.19,10.0,ESE,5.8,-,N/A,,Clear,120,2012-10-30 05:53:00
1:53 AM,30.9,25.0,79,30.19,10.0,East,3.5,-,N/A,,Clear,80,2012-10-30 06:53:00
2:53 AM,30.0,25.0,82,30.18,10.0,East,4.6,-,N/A,,Clear,90,2012-10-30 07:53:00
3:53 AM,28.9,24.1,82,30.18,10.0,East,8.1,-,N/A,,Clear,80,2012-10-30 08:53:00
4:53 AM,28.0,24.1,85,30.18,10.0,East,6.9,-,N/A,,Clear,80,2012-10-30 09:53:00
5:53 AM,28.9,25.0,85,30.18,10.0,East,6.9,-,N/A,,Clear,80,2012-10-30 10:53:00
6:53 AM,30.0,25.0,82,30.20,10.0,ENE,3.5,-,N/A,,Partly Cloudy,60,2012-10-30 11:53:00
7:53 AM,32.0,27.0,82,30.18,10.0,East,6.9,-,N/A,,Overcast,90,2012-10-30 12:53:00
8:53 AM,36.0,27.0,70,30.17,10.0,East,6.9,-,N/A,,Mostly Cloudy,90,2012-10-30 13:53:00
9:53 AM,39.9,26.1,58,30.19,10.0,East,5.8,-,N/A,,Mostly Cloudy,90,2012-10-30 14:53:00
10:53 AM,42.1,26.1,53,30.17,10.0,East,8.1,-,N/A,,Overcast,90,2012-10-30 15:53:00
11:53 AM,44.1,24.1,45,30.17,10.0,ESE,10.4,-,0.00,,Overcast,110,2012-10-30 16:53:00
12:53 PM,45.0,24.1,44,30.17,10.0,East,6.9,-,N/A,,Overcast,100,2012-10-30 17:53:00
1:53 PM,46.9,24.1,41,30.14,10.0,ESE,6.9,34.5,N/A,,Overcast,110,2012-10-30 18:53:00
2:53 PM,48.0,25.0,41,30.12,10.0,East,8.1,-,N/A,,Overcast,100,2012-10-30 19:53:00
3:53 PM,48.9,24.1,38,30.11,10.0,ESE,3.5,-,N/A,,Overcast,110,2012-10-30 20:53:00
4:53 PM,48.0,26.1,42,30.11,10.0,NE,5.8,-,N/A,,Overcast,40,2012-10-30 21:53:00
5:53 PM,46.0,28.0,50,30.11,10.0,North,4.6,-,N/A,,Overcast,360,2012-10-30 22:53:00
6:53 PM,45.0,28.9,53,30.11,10.0,North,5.8,-,N/A,,Overcast,350,2012-10-30 23:53:00
7:53 PM,42.1,28.9,60,30.11,10.0,North,4.6,-,N/A,,Overcast,360,2012-10-31 00:53:00
8:53 PM,42.1,28.9,60,30.10,10.0,North,4.6,-,N/A,,Overcast,360,2012-10-31 01:53:00
9:53 PM,39.0,30.9,73,30.10,10.0,NNW,5.8,-,N/A,,Overcast,340,2012-10-31 02:53:00
10:53 PM,42.1,30.9,65,30.09,10.0,NNE,4.6,-,N/A,,Overcast,20,2012-10-31 03:53:00
11:53 PM,39.0,28.9,67,30.09,10.0,North,5.8,-,N/A,,Clear,10,2012-10-31 04:53:00